CAPE
234 183 41 2 1 16 0 0 0 123 186 504 523 296 477 479 358 109 0 0 0 0 0 0 0 0 0 0 14 23 114 303 391 375 223 71 39 184 677 650 882 573 405 425
42 16 6 0 0 0 0 0 0 59 70 356 477 426 513 531 422 257 110 25 1 0 0 0 0 0 0 0 20 17 10 160 351 260 125 19 2 394 653 853 1112 814 536 541
61 4 0 0 0 0 0 0 0 14 416 556 417 363 493 436 387 303 187 119 55 1 0 0 0 0 0 0 8 28 127 127 198 160 116 191 531 545 514 624 1181 1044 734 532
7 3 0 0 0 0 0 0 2 161 242 373 613 230 409 480 469 352 312 240 200 107 23 0 0 0 0 0 1 4 73 231 152 153 205 95 270 398 412 454 599 986 906 799
0 0 0 0 0 0 0 0 30 193 375 548 617 369 314 541 617 532 432 328 263 196 143 3 0 0 0 0 0 0 0 61 102 222 198 92 208 481 429 421 688 992 600 669
0 0 0 0 0 0 0 5 120 105 423 325 334 400 190 457 640 586 567 477 386 292 176 98 8 0 0 0 0 0 0 0 8 96 127 83 69 196 429 493 722 854 675 439
0 0 0 0 0 0 0 0 0 6 102 0 9 304 77 315 78 221 608 667 551 427 316 137 51 29 0 0 0 0 0 0 0 0 8 11 0 132 287 760 902 766 405 312
0 0 0 0 0 0 0 0 0 0 0 41 54 204 160 0 45 167 398 674 578 563 467 361 101 22 19 0 0 0 0 0 0 0 0 0 0 27 172 513 913 776 322 137
0 0 0 0 0 0 0 0 0 1 10 93 83 87 21 0 22 160 481 528 566 558 633 617 550 366 165 90 34 1 7 17 20 16 0 0 0 5 213 583 864 917 652 419
0 0 0 0 0 0 0 0 0 0 32 5 10 10 30 2 0 67 200 304 482 507 612 632 699 782 630 507 422 283 151 189 173 76 0 0 0 20 349 461 836 1001 893 888
0 0 0 0 0 0 0 1 0 0 16 4 0 0 0 17 0 8 12 154 336 426 483 517 433 361 225 111 192 407 365 193 251 131 11 2 9 141 572 576 627 1039 1259 1414
0 0 0 0 0 0 0 0 0 0 0 20 7 0 0 1 0 0 0 7 40 109 273 228 165 81 32 155 556 376 281 340 247 185 108 99 118 225 524 807 911 1451 1472 1786
0 0 0 3 0 0 2 0 0 0 0 6 0 0 0 21 56 26 19 1 0 15 13 78 267 599 989 921 822 428 246 248 246 219 224 260 457 628 761 1107 1274 1523 1684 1866
0 0 0 0 0 0 0 0 0 0 0 0 0 0 0 3 33 49 31 54 104 188 285 441 878 1140 1162 776 436 305 259 202 240 308 409 609 957 1285 1530 1648 1728 1719 1747 1787
0 0 0 0 0 0 0 0 0 0 0 0 0 0 0 4 26 23 18 167 346 510 769 860 1258 1439 1369 1159 996 975 989 1182 1430 1688 1809 1849 1676 1639 1613 1472 1349 1188 1581 2034
0 0 0 0 0 0 0 0 0 0 0 0 0 0 0 0 3 16 29 195 227 819 1134 1376 1587 1737 1875 1934 1918 1939 1920 1916 1867 1810 1759 1733 1756 1719 1597 1528 1601 1560 1489 1298
0 0 0 0 0 0 0 0 0 0 0 0 0 0 0 0 1 7 59 169 188 967 1495 1660 1675 1794 1956 2049 2002 1763 1531 1143 1066 934 737 681 639 652 531 484 569 573 550 582
0 0 0 0 0 0 0 0 0 0 0 0 0 0 0 11 26 9 53 171 187 1093 1668 1783 1761 2014 1967 1679 1345 1066 719 538 290 83 20 0 0 0 0 10 5 0 0 0
0 0 0 0 0 0 0 0 0 0 0 0 0 0 0 28 99 77 69 137 181 1253 1829 1870 1860 1788 1455 1238 756 583 305 24 0 0 0 0 0 0 0 0 0 0 0 0
0 0 0 0 0 0 0 0 0 0 0 0 0 0 47 28 55 38 82 158 339 1445 1828 1752 1682 1354 1096 585 120 0 0 0 0 0 0 0 0 0 0 0 0 0 0 0
0 0 0 0 0 0 0 2 0 0 0 0 0 2 97 207 199 4 81 188 495 1387 1647 1437 1182 1126 645 16 0 0 0 0 0 0 0 0 0 0 0 0 0 0 0 0
0 0 0 0 0 0 0 3 0 0 0 0 0 18 167 311 596 298 340 561 826 1019 1167 961 888 398 13 0 0 0 0 0 0 0 0 0 0 0 0 0 0 0 0 0
0 0 0 0 0 0 0 0 0 0 0 0 0 5 154 633 786 869 664 933 1268 1339 1305 405 528 16 0 0 0 0 0 0 0 0 0 0 0 0 0 0 0 0 0 0
0 0 0 0 0 0 0 0 0 0 0 0 2 65 385 903 928 955 911 999 1285 1198 1053 325 18 0 0 0 0 0 0 0 0 0 0 0 0 0 0 0 0 0 0 0
0 0 0 0 0 0 0 0 0 0 0 0 86 216 784 933 985 862 842 998 1041 934 486 189 8 0 0 0 0 0 0 0 0 0 0 0 0 0 0 0 0 0 0 0
0 0 0 0 0 0 0 0 0 0 0 0 0 732 1642 1076 985 853 736 845 811 639 197 0 0 0 0 0 0 0 0 0 0 0 0 0 0 0 0 0 0 0 0 0
CIN
-273 -213 -145 -141 -200 -196 0 -18 -1 -69 -125 -90 -96 -194 -262 -261 -234 -248 0 0 0 0 0 0 0 0 0 0 -137 -143 -86 -63 -59 -61 -76 -178 -167 -88 -43 -58 -50 -61 -98 -101
-204 -124 -110 0 0 0 0 0 0 -149 -151 -111 -146 -185 -268 -234 -204 -235 -274 -346 -42 0 0 0 0 0 0 -22 -134 -157 -164 -88 -68 -89 -121 -225 -64 -81 -54 -54 -63 -84 -103 -105
-171 -77 0 0 0 0 0 0 0 -64 -124 -129 -171 -176 -240 -253 -255 -241 -236 -255 -308 -48 0 0 0 0 0 0 -167 -144 -117 -119 -91 -115 -126 -102 -81 -76 -73 -50 -42 -65 -89 -96
-251 -128 0 0 0 0 0 0 -30 -78 -61 -55 -132 -55 -197 -221 -243 -257 -251 -257 -269 -283 -317 0 0 0 0 0 -165 -159 -126 -114 -108 -130 -103 -129 -80 -47 -55 -46 -48 -54 -87 -93
0 0 0 0 0 0 0 0 -57 -75 -81 -86 -118 -67 -126 -229 -214 -229 -238 -255 -256 -309 -325 -300 0 0 0 0 0 0 0 -139 -135 -146 -140 -146 -104 -65 -50 -84 -59 -46 -94 -113
0 0 0 0 0 0 0 -14 -149 -187 -130 -53 -93 -83 -124 -171 -161 -198 -216 -230 -277 -290 -337 -389 -551 0 0 0 0 0 0 0 -157 -210 -191 -174 -174 -103 -71 -88 -59 -62 -93 -127
0 0 0 0 0 0 0 0 0 -39 -58 0 -130 -131 -136 -180 -320 -226 -154 -200 -257 -270 -304 -380 -468 -524 0 0 0 0 0 0 0 0 -118 -99 0 -175 -122 -70 -64 -73 -116 -138
0 0 0 0 0 0 0 0 0 -3 0 -76 -220 -67 -63 -10 -432 -438 -264 -196 -239 -212 -235 -271 -376 -480 -515 0 0 0 0 0 0 0 0 0 0 -252 -187 -126 -101 -105 -130 -146
0 0 0 0 0 0 0 0 0 -79 -218 -86 -150 -200 -229 0 -477 -461 -308 -264 -237 -218 -231 -246 -254 -276 -329 -398 -468 -64 -56 -435 -444 -394 0 0 0 -42 -214 -126 -120 -110 -131 -150
0 -16 0 0 0 0 0 0 0 0 -27 -12 -104 -95 -83 -175 -90 -433 -331 -293 -233 -248 -278 -280 -284 -264 -270 -282 -307 -383 -407 -362 -355 -376 0 0 0 -449 -223 -175 -114 -108 -111 -107
0 0 0 0 -2 0 -17 -20 0 0 -114 -28 0 0 0 -227 0 -416 -314 -265 -220 -225 -289 -268 -359 -385 -362 -401 -349 -309 -355 -383 -368 -397 -314 -308 -457 -335 -234 -178 -133 -84 -74 -69
0 0 0 0 0 0 0 0 0 0 -2 -146 -60 0 0 -102 0 0 0 -428 -322 -309 -349 -381 -380 -379 -406 -402 -315 -321 -356 -317 -327 -355 -398 -371 -343 -323 -257 -188 -121 -72 -34 -39
0 0 0 -20 0 0 -38 0 0 0 0 -47 0 0 0 -434 -396 -550 -572 -70 0 -387 -450 -365 -273 -207 -209 -241 -256 -332 -398 -335 -360 -351 -348 -328 -320 -314 -261 -153 -96 -67 -47 -41
0 0 0 0 0 0 0 0 0 0 0 0 0 0 0 -79 -339 -387 -500 -519 -348 -344 -333 -211 -194 -242 -225 -262 -332 -394 -419 -391 -363 -381 -322 -275 -241 -172 -128 -93 -80 -75 -62 -51
0 0 0 0 0 0 0 0 0 0 0 0 0 0 0 -65 -308 -312 -394 -413 -362 -293 -216 -209 -260 -270 -274 -315 -359 -361 -325 -297 -276 -198 -161 -158 -172 -172 -149 -128 -137 -158 -109 -64
0 0 0 0 0 0 0 0 0 0 0 0 0 0 0 0 -423 -439 -415 -363 -324 -242 -210 -285 -270 -262 -256 -269 -269 -261 -253 -260 -233 -208 -214 -210 -191 -176 -169 -159 -126 -113 -107 -117
0 0 0 0 0 0 0 0 0 0 0 0 0 0 0 0 -77 -298 -383 -378 -359 -287 -244 -238 -228 -220 -254 -246 -238 -273 -307 -310 -292 -315 -344 -337 -333 -302 -317 -311 -247 -228 -229 -213
0 0 0 0 0 0 0 0 0 0 0 0 0 0 0 -179 -339 -338 -402 -332 -339 -258 -235 -232 -233 -213 -246 -295 -320 -372 -384 -388 -428 -574 -287 0 0 0 0 -277 -274 0 0 0
0 0 0 0 0 0 0 0 0 0 0 0 0 0 0 -279 -339 -326 -481 -430 -344 -259 -217 -230 -225 -241 -293 -309 -371 -396 -442 -350 0 0 0 0 0 0 0 0 0 0 0 0
0 0 0 0 0 0 0 0 0 0 0 0 0 0 -182 -283 -160 -155 -396 -405 -339 -216 -219 -258 -285 -333 -329 -434 -580 -1 0 0 0 0 0 0 0 0 0 0 0 0 0 0
0 0 0 0 0 0 0 -158 0 0 0 0 0 -90 -182 -91 -111 -44 -367 -327 -314 -257 -246 -297 -327 -317 -401 -381 0 0 0 0 0 0 0 0 0 0 0 0 0 0 0 0
0 0 0 0 0 0 0 -114 0 0 0 0 0 -148 -116 -164 -208 -248 -360 -371 -385 -342 -361 -341 -316 -266 -560 0 0 0 0 0 0 0 0 0 0 0 0 0 0 0 0 0
0 0 0 0 0 0 0 0 0 0 0 0 0 -147 -136 -147 -178 -245 -310 -352 -403 -356 -352 -469 -400 -541 0 0 0 0 0 0 0 0 0 0 0 0 0 0 0 0 0 0
0 0 0 -2 0 0 0 0 0 0 0 0 -59 -238 -228 -140 -252 -336 -369 -388 -381 -350 -349 -520 -279 0 0 0 0 0 0 0 0 0 0 0 0 0 0 0 0 0 0 0
0 0 0 0 0 0 0 0 0 0 0 0 -541 -300 -155 -206 -256 -299 -338 -344 -406 -408 -466 -490 -98 0 0 0 0 0 0 0 0 0 0 0 0 0 0 0 0 0 0 0
0 0 0 0 0 0 0 0 0 0 0 0 0 -370 -272 -224 -250 -358 -339 -438 -474 -437 -544 0 0 0 0 0 0 0 0 0 0 0 0 0 0 0 0 0 0 0 0 0
Wind_Speed
17 19 21 17 17 18 19 21 21 15 20 15 15 20 22 21 21 21 22 23 23 24 28 30 27 30 24 25 19 26 17 24 17 19 20 21 21 9 15 10 13 13 11 12
23 21 18 15 12 11 15 17 21 12 20 14 19 9 18 18 18 20 21 22 22 23 25 27 29 31 25 21 25 8 21 7 18 26 15 17 20 14 16 13 9 9 9 10
24 22 17 11 10 11 13 17 17 7 9 13 9 15 16 14 17 19 20 21 22 22 24 25 26 30 30 26 18 6 4 9 15 11 10 19 19 19 12 12 10 9 8 8
24 23 12 12 15 16 18 17 9 7 6 8 11 18 19 15 17 18 20 21 21 22 22 23 24 28 29 31 27 23 14 16 23 27 22 14 23 20 6 13 11 11 7 7
26 23 24 23 15 16 19 14 12 9 9 11 10 19 20 15 15 19 19 21 20 21 22 23 24 26 28 29 29 32 33 32 32 29 22 16 16 11 7 14 9 8 7 7
32 28 28 22 23 23 11 13 13 12 14 17 7 23 23 10 17 19 19 22 21 21 20 20 24 24 26 27 29 28 29 31 29 26 21 17 18 17 16 7 7 7 9 9
28 27 13 25 22 18 15 12 13 16 17 20 18 22 22 16 17 19 22 24 24 20 15 16 16 18 21 22 25 27 27 29 30 27 23 21 19 18 17 11 11 10 9 10
12 14 18 19 22 19 17 16 17 18 17 20 16 18 18 14 16 19 21 16 16 15 14 12 14 13 16 20 23 26 29 28 26 24 23 21 21 17 16 11 10 11 10 11
10 19 17 19 20 17 18 18 13 16 16 14 18 20 7 9 12 9 7 10 17 15 13 19 14 16 15 15 20 25 25 27 27 25 21 20 16 15 15 12 9 10 12 13
19 20 14 15 12 14 14 12 17 15 10 14 19 21 7 6 7 7 9 12 12 14 8 17 15 18 18 15 18 16 19 22 21 24 23 21 16 17 10 11 15 14 16 16
29 24 26 21 15 15 15 17 18 13 13 12 15 12 13 7 10 8 7 9 9 14 23 8 11 10 9 10 14 18 15 16 17 16 22 19 17 14 16 16 18 18 14 9
8 17 25 24 13 17 19 15 15 13 10 12 12 10 15 10 12 12 5 10 31 27 32 28 13 9 26 26 20 17 15 19 18 17 17 17 16 15 14 17 16 14 13 13
0 16 13 14 18 18 16 16 14 11 12 9 11 9 14 9 9 11 15 21 24 30 29 31 21 22 22 22 6 10 13 20 13 17 14 16 14 11 13 14 15 14 13 14
4 15 17 20 22 20 18 10 13 11 11 8 7 9 8 9 11 13 19 23 27 29 26 20 19 18 17 14 8 6 6 10 8 8 12 14 11 8 9 11 12 12 12 14
15 16 18 20 18 18 21 18 15 12 10 12 8 7 8 13 19 20 15 23 23 20 13 13 13 13 12 10 7 8 8 8 9 9 9 12 12 10 6 5 4 1 5 9
18 16 17 20 17 16 24 25 20 13 11 14 10 7 8 10 16 22 4 13 8 15 3 5 6 6 8 7 8 9 9 10 10 11 13 14 15 15 15 15 15 16 18 20
18 15 19 21 18 15 18 19 15 13 9 7 9 6 7 11 19 20 20 20 17 1 11 7 6 7 8 10 10 9 10 10 11 12 14 16 17 17 18 18 18 20 21 22
19 17 17 20 17 18 15 16 10 9 10 4 12 6 9 13 12 16 23 23 22 7 12 8 5 7 8 7 8 9 10 11 12 15 16 17 18 19 19 19 20 21 22 23
14 17 21 21 18 20 18 8 7 9 12 5 7 8 7 6 4 12 16 21 20 9 10 9 12 13 8 7 8 9 10 12 14 16 17 17 18 17 17 18 20 21 21 22
19 18 22 22 25 22 21 19 23 18 15 3 4 5 8 7 8 18 18 18 18 11 15 17 15 11 11 10 10 10 12 13 15 16 16 16 17 16 18 18 18 18 18 18
28 26 26 26 29 30 27 31 21 18 19 9 4 0 5 7 10 7 13 13 10 12 18 12 9 9 7 8 9 12 13 14 15 15 15 16 16 16 18 19 17 16 18 19
32 30 30 28 30 33 30 22 23 27 30 28 10 5 8 3 1 8 11 13 13 15 14 13 9 12 6 9 11 13 14 15 15 16 15 15 16 16 17 16 17 18 19 20
30 29 31 29 28 25 25 24 25 26 28 27 19 7 10 10 5 9 11 12 12 15 14 11 9 10 9 10 13 14 14 14 15 14 14 14 14 15 15 13 16 18 19 20
26 25 26 26 25 28 24 23 25 27 28 31 24 10 10 11 10 9 11 10 12 15 12 5 5 7 8 11 13 13 13 13 13 13 13 12 13 15 15 14 15 17 18 20
29 32 30 30 27 30 24 27 28 28 28 29 26 13 14 14 13 14 13 14 15 15 12 10 9 7 7 9 11 12 13 12 12 12 12 13 13 14 14 13 15 17 17 19
29 30 31 33 34 29 33 34 30 28 27 27 26 22 16 15 17 15 16 15 17 17 14 14 11 10 7 8 10 11 12 11 11 12 12 13 14 15 13 12 15 18 18 18
Wind_Direction
103 195 185 209 220 225 252 256 234 264 182 194 181 80 118 116 118 116 125 131 135 152 166 168 164 169 160 164 161 172 150 236 253 254 250 242 196 18 326 49 122 131 93 92
197 199 209 205 184 193 221 205 205 293 139 259 184 104 114 112 129 129 130 137 138 143 149 160 171 175 171 168 172 249 164 250 247 232 277 274 250 304 303 326 107 114 100 90
220 202 259 211 213 195 204 198 238 349 296 283 350 279 160 123 145 151 155 145 142 139 144 157 163 172 176 173 164 185 204 162 154 263 295 259 259 273 342 355 40 129 125 74
208 225 139 230 247 273 293 218 36 43 2 1 201 303 207 141 150 146 155 155 149 145 148 149 156 169 176 180 176 168 157 153 165 173 172 184 209 200 23 340 14 32 83 103
213 251 267 267 295 334 332 46 68 61 59 328 313 289 257 155 160 164 160 162 157 154 148 150 156 163 170 174 175 180 181 181 183 179 173 161 172 154 357 330 20 53 91 105
233 258 263 234 249 250 336 4 354 338 303 308 314 272 248 125 174 174 166 172 165 158 153 152 160 161 165 170 176 173 176 181 179 181 179 176 182 182 177 121 120 115 135 138
252 241 218 248 263 283 302 351 0 311 297 294 302 278 249 168 182 175 171 175 170 159 144 147 146 153 158 160 168 174 176 182 186 187 187 185 184 186 184 159 162 159 143 150
292 279 238 238 224 247 268 299 302 314 319 313 340 291 296 139 182 183 179 157 151 155 150 140 146 141 150 163 165 174 184 185 184 185 188 186 189 184 188 174 166 167 160 166
290 236 242 249 260 277 267 285 337 339 332 337 314 308 39 111 154 115 112 131 149 145 143 152 141 145 145 148 162 176 179 188 188 188 183 183 179 177 181 180 175 179 181 190
259 253 290 272 306 304 305 319 317 323 358 342 334 309 322 73 65 81 126 145 143 141 125 138 138 148 152 152 165 161 169 178 178 188 186 186 180 188 184 188 194 195 200 205
231 265 252 276 314 316 310 314 324 341 347 347 351 20 359 45 39 49 127 149 170 163 216 132 128 116 108 112 157 175 169 169 173 173 189 184 187 186 196 199 208 206 203 205
269 291 278 267 309 324 297 316 346 358 6 3 30 63 7 60 71 76 90 171 238 247 222 216 131 291 245 238 192 167 162 172 176 174 179 185 191 196 200 209 209 207 203 206
82 273 295 300 286 290 327 333 338 16 21 33 34 79 17 70 82 53 93 115 211 214 222 213 250 256 261 270 306 139 152 175 165 181 180 191 193 189 196 198 203 202 200 203
311 283 295 295 291 290 299 330 347 355 6 31 39 54 90 115 127 112 123 144 148 195 212 239 255 265 273 287 326 43 82 127 122 134 162 175 172 162 170 183 189 196 196 206
302 305 314 311 306 295 288 291 309 330 12 8 32 49 107 143 146 142 119 197 206 223 239 254 264 282 293 293 339 20 14 41 48 47 20 344 336 347 1 353 351 262 349 353
306 312 332 322 307 304 285 280 297 312 327 335 22 59 84 72 127 150 281 122 92 241 317 280 305 344 25 3 27 49 45 31 26 17 7 357 354 348 344 346 343 336 326 322
307 309 308 303 316 319 302 294 299 306 321 359 9 57 67 110 147 151 149 146 137 238 111 96 78 56 41 61 65 44 28 31 23 16 3 349 339 336 334 335 333 327 321 322
297 304 305 300 315 296 312 312 315 319 322 353 343 45 132 140 130 140 154 157 153 149 134 101 72 77 75 60 34 34 40 24 8 358 353 347 338 331 330 333 329 323 317 316
303 295 290 290 293 292 302 324 340 333 328 15 16 50 79 75 46 270 149 154 153 144 150 122 116 109 87 69 57 45 27 11 2 352 349 344 347 353 356 350 342 333 329 324
290 295 287 284 283 281 283 303 290 309 299 329 23 48 111 101 138 166 156 150 149 143 151 148 135 109 96 86 74 43 18 4 355 356 358 356 357 5 2 1 5 3 2 1
279 284 283 284 277 277 286 284 298 284 301 298 306 208 157 159 154 132 151 155 150 146 157 151 137 121 88 70 49 23 10 1 359 359 357 354 0 6 3 3 12 23 11 6
273 275 274 278 276 272 296 291 280 289 286 288 293 191 177 223 319 122 136 141 150 154 154 148 132 270 66 62 42 29 9 1 357 353 353 351 354 358 5 21 20 17 14 9
273 276 273 273 274 284 293 288 293 299 291 293 285 221 180 170 208 154 147 140 141 145 149 144 135 125 89 75 43 21 11 6 359 358 356 354 356 1 9 29 21 18 18 14
282 293 275 274 271 284 286 298 303 305 297 292 282 230 191 182 170 160 159 147 139 144 149 155 114 92 64 37 25 26 24 16 11 7 11 13 11 7 9 22 21 17 13 9
281 286 279 274 279 284 269 294 299 304 304 296 287 236 194 189 180 167 160 152 147 145 147 143 130 105 77 45 33 28 28 32 33 32 26 20 13 9 12 20 14 11 13 11
279 279 277 270 280 278 277 284 290 296 303 302 288 266 239 200 180 175 164 156 151 147 144 141 135 121 90 57 36 34 38 51 54 39 26 21 15 12 15 25 19 10 19 23